Weather History for Moses Lake, WA

Change the Weather History Date:

Monday, October 3, 2011

  Actual Average Record
Temperature  
Mean Temperature 62 °F 55 °F  
Max Temperature 70 °F 70 °F 84 °F (2003)
Min Temperature 54 °F 40 °F 30 °F (1999)
Degree Days  
Heating Degree Days 3 10  
Month to date heating degree days 14 29  
Since 1 July heating degree days 86 179  
Cooling Degree Days 0 0  
Month to date cooling degree days 0 0  
Year to date cooling degree days 494 614  
Growing Degree Days 12 (Base 50)    
Moisture  
Dew Point 46 °F    
Average Humidity 60    
Maximum Humidity 83    
Minimum Humidity 37    
Precipitation  
Precipitation 0.00 in 0.02 in 0.46 in (2005)
Month to date precipitation 0.00 0.04  
Year to date precipitation 4.46 5.86  
Sea Level Pressure  
Sea Level Pressure 29.79 in    
Wind  
Wind Speed 6 mph (SSW)    
Max Wind Speed 17 mph    
Max Gust Speed 18 mph    
Visibility 10 miles    
Events      
T = Trace of Precipitation, MM = Missing Value Source: NWS Daily Summary

Daily Weather History Graph

Daily Weather History Graph

Search for Another Location

Airport:

Trip Planner

Search our weather history database for the weather conditions in past years. The results will help you decide how hot, cold, wet, or windy it might be!

Date:

Astronomy

Oct. 03, 2011 Rise Set
Actual Time 6:58 AM PDT 6:33 PM PDT
Civil Twilight 6:28 AM PDT 7:03 PM PDT
Nautical Twilight 5:52 AM PDT 7:38 PM PDT
Astronomical Twilight 5:16 AM PDT 8:14 PM PDT
Moon 2:21 PM PDT (10/3) 11:21 PM PDT (10/3)
Length of Visible Light 12h 35m
Length of Day
11h 34m
Waxing Crescent, 46% of the Moon is Illuminated
Oct 3
Waxing Crescent
Oct 3
First Quarter
Oct 11
Full
Oct 19
Last Quarter
Oct 26
New

Hourly Weather History & Observations

Time (PDT) Temp. Dew Point Humidity Pressure Visibility Wind Dir Wind Speed Gust Speed Precip Events Conditions
12:52 AM 57.2 °F 44.6 °F 63% 29.80 in 10.0 mi North 4.6 mph - N/A   Clear
1:52 AM 55.9 °F 45.0 °F 67% 29.78 in 10.0 mi North 4.6 mph - N/A   Mostly Cloudy
2:52 AM 55.0 °F 44.1 °F 67% 29.76 in 10.0 mi North 8.1 mph - N/A   Clear
3:52 AM 55.9 °F 44.1 °F 64% 29.77 in 10.0 mi Calm Calm - N/A   Clear
4:52 AM 57.0 °F 46.0 °F 67% 29.78 in 10.0 mi Calm Calm - N/A   Mostly Cloudy
5:52 AM 55.9 °F 46.9 °F 72% 29.79 in 10.0 mi ESE 6.9 mph - N/A   Mostly Cloudy
6:52 AM 55.9 °F 50.0 °F 80% 29.81 in 10.0 mi South 4.6 mph - N/A   Mostly Cloudy
7:52 AM 54.0 °F 48.9 °F 83% 29.81 in 10.0 mi ESE 5.8 mph - N/A   Clear
8:52 AM 60.1 °F 48.9 °F 67% 29.82 in 10.0 mi South 6.9 mph - N/A   Clear
9:52 AM 61.0 °F 50.0 °F 67% 29.83 in 10.0 mi SE 6.9 mph - N/A   Clear
10:52 AM 66.2 °F 46.4 °F 49% 29.83 in 10.0 mi South 9.2 mph - N/A   Clear
11:52 AM 69.1 °F 46.9 °F 45% 29.81 in 10.0 mi SSW 13.8 mph - N/A   Clear
12:52 PM 69.1 °F 44.1 °F 40% 29.81 in 10.0 mi SSW 11.5 mph - N/A   Clear
1:52 PM 69.1 °F 43.0 °F 39% 29.81 in 8.0 mi SSW 11.5 mph - N/A   Clear
2:52 PM 68.0 °F 43.0 °F 40% 29.81 in 10.0 mi SW 8.1 mph - N/A   Clear
3:52 PM 66.9 °F 43.0 °F 42% 29.80 in 10.0 mi SW 9.2 mph - N/A   Mostly Cloudy
4:52 PM 66.0 °F 43.0 °F 43% 29.79 in 10.0 mi SSW 8.1 mph - N/A   Mostly Cloudy
5:52 PM 64.0 °F 44.1 °F 48% 29.79 in 10.0 mi SW 5.8 mph - N/A   Mostly Cloudy
6:52 PM 63.0 °F 45.0 °F 52% 29.79 in 10.0 mi SSW 4.6 mph - N/A   Clear
7:52 PM 63.0 °F 45.0 °F 52% 29.79 in 10.0 mi SSW 6.9 mph - N/A   Partly Cloudy
8:52 PM 62.1 °F 45.0 °F 53% 29.77 in 10.0 mi South 4.6 mph - N/A   Partly Cloudy
9:52 PM 55.9 °F 46.9 °F 72% 29.78 in 10.0 mi North - - N/A   Clear
10:52 PM 57.0 °F 46.0 °F 67% 29.76 in 10.0 mi Calm Calm - N/A   Clear
11:52 PM 57.0 °F 48.0 °F 72% 29.76 in 10.0 mi SW 5.8 mph - N/A   Scattered Clouds